VLG1XN LEBL-LEIB

Flight info

Callsign VLG1XN
Flight time 0h 39m
Altitude 19000
Route LARPA N859 TOLSO
Aircraft A321/M-SDFGHIJ1LORVWXY/LB1

Departure

Time 2026-05-01 13:57
Airport Josep Tarradellas Barcelona-El Prat Airport (LEBL)

Arrival

Time 2026-05-01 14:36
Airport Ibiza Airport (LEIB)
Time Latitude Longitude Altitude Speed Heading
2026-05-01 13:27 41.29105 2.07793 23 ft 0 kts 155°
2026-05-01 13:45 41.29118 2.07786 23 ft 2 kts 155°
2026-05-01 13:45 41.29131 2.07777 23 ft 2 kts 155°
2026-05-01 13:45 41.29145 2.07769 23 ft 1 kts 155°
2026-05-01 13:45 41.29153 2.07764 23 ft 2 kts 144°
2026-05-01 13:46 41.29163 2.07748 23 ft 2 kts 110°
2026-05-01 13:46 41.29165 2.07728 23 ft 2 kts 80°
2026-05-01 13:46 41.29163 2.07718 23 ft 1 kts 63°
2026-05-01 13:46 41.29160 2.07712 23 ft 0 kts 65°
2026-05-01 13:49 41.29162 2.07716 23 ft 1 kts 65°
2026-05-01 13:49 41.29176 2.07757 23 ft 7 kts 65°
2026-05-01 13:50 41.29206 2.07848 23 ft 12 kts 66°
2026-05-01 13:50 41.29246 2.07963 23 ft 13 kts 65°
2026-05-01 13:50 41.29285 2.08079 23 ft 13 kts 66°
2026-05-01 13:50 41.29325 2.08197 23 ft 14 kts 65°
2026-05-01 13:51 41.29343 2.08250 23 ft 2 kts 66°
2026-05-01 13:51 41.29352 2.08277 23 ft 3 kts 66°
2026-05-01 13:51 41.29364 2.08313 23 ft 6 kts 66°
2026-05-01 13:51 41.29355 2.08383 23 ft 10 kts 145°
2026-05-01 13:52 41.29289 2.08427 23 ft 11 kts 155°
2026-05-01 13:52 41.29218 2.08471 23 ft 11 kts 155°
2026-05-01 13:52 41.29136 2.08521 23 ft 14 kts 155°
2026-05-01 13:52 41.29035 2.08579 23 ft 16 kts 156°
2026-05-01 13:53 41.28932 2.08642 23 ft 16 kts 154°
2026-05-01 13:53 41.28797 2.08540 23 ft 13 kts 247°
2026-05-01 13:53 41.28760 2.08421 23 ft 14 kts 245°
2026-05-01 13:54 41.28715 2.08300 23 ft 14 kts 244°
2026-05-01 13:54 41.28673 2.08176 23 ft 15 kts 246°
2026-05-01 13:54 41.28629 2.08047 23 ft 15 kts 245°
2026-05-01 13:54 41.28584 2.07917 23 ft 15 kts 245°
2026-05-01 13:55 41.28538 2.07784 23 ft 16 kts 245°
2026-05-01 13:55 41.28492 2.07647 23 ft 16 kts 245°
2026-05-01 13:55 41.28455 2.07540 23 ft 9 kts 245°
2026-05-01 13:55 41.28411 2.07469 23 ft 10 kts 207°
2026-05-01 13:56 41.28342 2.07432 23 ft 10 kts 200°
2026-05-01 13:56 41.28271 2.07403 23 ft 10 kts 180°
2026-05-01 13:56 41.28243 2.07467 23 ft 7 kts 71°
2026-05-01 13:56 41.28262 2.07527 23 ft 20 kts 66°
2026-05-01 13:57 41.28429 2.08018 23 ft 94 kts 65°
2026-05-01 13:57 41.28799 2.09086 41 ft 152 kts 68°
2026-05-01 13:57 41.29237 2.10357 669 ft 152 kts 71°
2026-05-01 13:57 41.29333 2.11745 1232 ft 156 kts 95°
2026-05-01 13:58 41.29173 2.13244 1497 ft 170 kts 97°
2026-05-01 13:58 41.29005 2.14854 1765 ft 185 kts 95°
2026-05-01 13:58 41.28898 2.16616 2051 ft 199 kts 95°
2026-05-01 13:58 41.28764 2.18549 2345 ft 217 kts 95°
2026-05-01 13:59 41.28567 2.20611 2690 ft 236 kts 97°
2026-05-01 13:59 41.28310 2.22828 3142 ft 250 kts 99°
2026-05-01 13:59 41.28058 2.25129 3847 ft 255 kts 97°
2026-05-01 13:59 41.27834 2.27476 4608 ft 258 kts 99°
2026-05-01 14:00 41.27150 2.29662 5301 ft 264 kts 130°
2026-05-01 14:00 41.25618 2.31017 6056 ft 270 kts 161°
2026-05-01 14:00 41.23771 2.31367 6847 ft 274 kts 175°
2026-05-01 14:00 41.21842 2.31499 7644 ft 277 kts 175°
2026-05-01 14:01 41.19936 2.31645 8381 ft 281 kts 174°
2026-05-01 14:01 41.17968 2.31821 9136 ft 284 kts 174°
2026-05-01 14:01 41.16004 2.32017 9871 ft 286 kts 174°
2026-05-01 14:01 41.14151 2.32211 10534 ft 289 kts 175°
2026-05-01 14:02 41.12058 2.32435 10967 ft 303 kts 175°
2026-05-01 14:02 41.09904 2.32669 11292 ft 319 kts 175°
2026-05-01 14:02 41.07648 2.32915 11858 ft 326 kts 175°
2026-05-01 14:02 41.05409 2.33162 12526 ft 329 kts 175°
2026-05-01 14:03 41.03121 2.33413 13173 ft 332 kts 175°
2026-05-01 14:03 41.00811 2.33667 13807 ft 335 kts 175°
2026-05-01 14:03 40.98460 2.33926 14437 ft 338 kts 175°
2026-05-01 14:03 40.96111 2.34186 15055 ft 341 kts 175°
2026-05-01 14:04 40.93750 2.34450 15680 ft 344 kts 175°
2026-05-01 14:04 40.91365 2.34716 16281 ft 346 kts 175°
2026-05-01 14:04 40.88958 2.34984 16859 ft 349 kts 175°
2026-05-01 14:04 40.87360 2.35161 17236 ft 351 kts 175°
2026-05-01 14:05 40.84104 2.35522 17983 ft 355 kts 175°
2026-05-01 14:05 40.81634 2.35796 18531 ft 358 kts 175°
2026-05-01 14:05 40.79110 2.36076 19025 ft 361 kts 176°
2026-05-01 14:05 40.76564 2.36358 19229 ft 363 kts 176°
2026-05-01 14:06 40.74044 2.36637 19231 ft 362 kts 176°
2026-05-01 14:06 40.71547 2.36913 19231 ft 362 kts 176°
2026-05-01 14:06 40.69042 2.37190 19229 ft 362 kts 176°
2026-05-01 14:06 40.66613 2.37459 19226 ft 362 kts 176°
2026-05-01 14:07 40.64247 2.37720 19223 ft 361 kts 176°
2026-05-01 14:07 40.61749 2.37997 19219 ft 361 kts 176°
2026-05-01 14:07 40.59240 2.38274 19216 ft 361 kts 176°
2026-05-01 14:08 40.54230 2.38825 19213 ft 361 kts 176°
2026-05-01 14:08 40.51729 2.39142 19212 ft 361 kts 173°
2026-05-01 14:08 40.49271 2.39651 19212 ft 362 kts 169°
2026-05-01 14:08 40.46812 2.40388 19211 ft 362 kts 166°
2026-05-01 14:09 40.44387 2.41231 19212 ft 362 kts 166°
2026-05-01 14:09 40.41954 2.42087 19212 ft 362 kts 166°
2026-05-01 14:09 40.39533 2.42888 19207 ft 361 kts 171°
2026-05-01 14:09 40.37029 2.42770 19192 ft 359 kts 197°
2026-05-01 14:10 40.34812 2.41389 19218 ft 358 kts 211°
2026-05-01 14:10 40.32693 2.39679 19215 ft 358 kts 212°
2026-05-01 14:10 40.30555 2.37964 19213 ft 358 kts 211°
2026-05-01 14:10 40.28418 2.36285 19211 ft 358 kts 211°
2026-05-01 14:11 40.26280 2.34636 19209 ft 358 kts 210°
2026-05-01 14:11 40.21988 2.31377 19204 ft 358 kts 210°
2026-05-01 14:11 40.19832 2.29754 19200 ft 358 kts 210°
2026-05-01 14:12 40.17676 2.28138 19197 ft 357 kts 210°
2026-05-01 14:12 40.15517 2.26522 19193 ft 357 kts 210°
2026-05-01 14:12 40.13353 2.24906 19190 ft 357 kts 210°
2026-05-01 14:12 40.11214 2.23311 19187 ft 357 kts 210°
2026-05-01 14:13 40.09055 2.21701 19186 ft 357 kts 210°
2026-05-01 14:13 40.07627 2.20637 19185 ft 357 kts 210°
2026-05-01 14:13 40.04727 2.18480 19184 ft 357 kts 210°
2026-05-01 14:13 40.02599 2.16898 19184 ft 357 kts 210°
2026-05-01 14:14 40.00425 2.15283 19184 ft 357 kts 210°
2026-05-01 14:14 39.98272 2.13685 19184 ft 357 kts 210°
2026-05-01 14:14 39.96104 2.12077 19184 ft 357 kts 210°
2026-05-01 14:14 39.93942 2.10475 19185 ft 357 kts 210°
2026-05-01 14:15 39.91813 2.08898 19186 ft 357 kts 210°
2026-05-01 14:15 39.89863 2.07455 19187 ft 357 kts 210°
2026-05-01 14:15 39.87839 2.05959 19189 ft 357 kts 210°
2026-05-01 14:15 39.85684 2.04366 19191 ft 357 kts 210°
2026-05-01 14:16 39.83484 2.02741 19192 ft 357 kts 210°
2026-05-01 14:16 39.81324 2.01147 19194 ft 357 kts 210°
2026-05-01 14:16 39.79171 1.99559 19196 ft 357 kts 210°
2026-05-01 14:16 39.77009 1.97966 19198 ft 357 kts 210°
2026-05-01 14:17 39.74848 1.96375 19200 ft 357 kts 210°
2026-05-01 14:17 39.72691 1.94788 19201 ft 357 kts 210°
2026-05-01 14:17 39.70538 1.93205 19203 ft 357 kts 210°
2026-05-01 14:17 39.68372 1.91614 19205 ft 357 kts 210°
2026-05-01 14:18 39.66202 1.90021 19207 ft 357 kts 210°
2026-05-01 14:18 39.64059 1.88449 19207 ft 357 kts 210°
2026-05-01 14:18 39.61895 1.86862 19207 ft 357 kts 210°
2026-05-01 14:18 39.60455 1.85807 19206 ft 357 kts 210°
2026-05-01 14:19 39.57564 1.83690 19203 ft 357 kts 210°
2026-05-01 14:19 39.55399 1.82107 19200 ft 357 kts 210°
2026-05-01 14:19 39.53257 1.80541 19176 ft 357 kts 210°
2026-05-01 14:19 39.51075 1.78946 18731 ft 358 kts 210°
2026-05-01 14:20 39.48920 1.77374 18269 ft 357 kts 210°
2026-05-01 14:20 39.44636 1.74250 17375 ft 354 kts 210°
2026-05-01 14:20 39.42479 1.72680 16926 ft 352 kts 210°
2026-05-01 14:21 39.40358 1.71137 16486 ft 350 kts 210°
2026-05-01 14:21 39.38257 1.69608 16048 ft 349 kts 210°
2026-05-01 14:21 39.36144 1.68073 15607 ft 347 kts 210°
2026-05-01 14:22 39.31987 1.65055 14741 ft 343 kts 210°
2026-05-01 14:22 39.29918 1.63555 14317 ft 341 kts 210°
2026-05-01 14:22 39.27857 1.62061 13891 ft 339 kts 210°
2026-05-01 14:22 39.25802 1.60572 13464 ft 337 kts 210°
2026-05-01 14:23 39.23767 1.59100 13039 ft 335 kts 210°
2026-05-01 14:23 39.21745 1.57638 12620 ft 333 kts 210°
2026-05-01 14:23 39.19736 1.56187 12203 ft 331 kts 209°
2026-05-01 14:23 39.17731 1.54739 11782 ft 329 kts 209°
2026-05-01 14:24 39.15729 1.53296 11348 ft 328 kts 209°
2026-05-01 14:24 39.13768 1.51883 10913 ft 327 kts 209°
2026-05-01 14:24 39.11782 1.50454 10507 ft 325 kts 209°
2026-05-01 14:24 39.09830 1.49049 10319 ft 315 kts 209°
2026-05-01 14:25 39.07961 1.47704 10205 ft 304 kts 209°
2026-05-01 14:25 39.06133 1.46385 9944 ft 299 kts 211°
2026-05-01 14:25 39.04486 1.44826 9658 ft 295 kts 223°
2026-05-01 14:25 39.03112 1.42844 9262 ft 295 kts 232°
2026-05-01 14:26 39.01884 1.40737 8817 ft 297 kts 233°
2026-05-01 14:26 38.99464 1.36483 8108 ft 295 kts 234°
2026-05-01 14:26 38.98238 1.34352 7778 ft 293 kts 233°
2026-05-01 14:27 38.97018 1.32240 7474 ft 290 kts 233°
2026-05-01 14:27 38.95773 1.30090 7013 ft 293 kts 233°
2026-05-01 14:27 38.94555 1.27990 6738 ft 288 kts 233°
2026-05-01 14:28 38.92159 1.23875 6041 ft 287 kts 233°
2026-05-01 14:28 38.90940 1.21784 5769 ft 283 kts 233°
2026-05-01 14:28 38.89775 1.19783 5581 ft 277 kts 233°
2026-05-01 14:28 38.88675 1.17761 5393 ft 271 kts 239°
2026-05-01 14:29 38.87754 1.15679 5169 ft 266 kts 242°
2026-05-01 14:29 38.86880 1.13579 4929 ft 262 kts 243°
2026-05-01 14:30 38.84195 1.07635 4215 ft 250 kts 218°
2026-05-01 14:30 38.82648 1.06807 4045 ft 240 kts 179°
2026-05-01 14:30 38.81076 1.07231 3929 ft 227 kts 149°
2026-05-01 14:31 38.79207 1.10119 3677 ft 212 kts 105°
2026-05-01 14:31 38.78801 1.11903 3560 ft 208 kts 102°
2026-05-01 14:31 38.78410 1.13679 3477 ft 202 kts 101°
2026-05-01 14:31 38.78380 1.15383 3399 ft 183 kts 75°
2026-05-01 14:32 38.78807 1.16881 3271 ft 178 kts 64°
2026-05-01 14:32 38.79379 1.18270 3043 ft 176 kts 60°
2026-05-01 14:32 38.79974 1.19635 2807 ft 175 kts 60°
2026-05-01 14:32 38.80559 1.21006 2572 ft 175 kts 61°
2026-05-01 14:33 38.81132 1.22380 2339 ft 174 kts 62°
2026-05-01 14:33 38.81690 1.23738 2104 ft 169 kts 62°
2026-05-01 14:33 38.82225 1.25042 1877 ft 162 kts 62°
2026-05-01 14:33 38.82737 1.26287 1683 ft 149 kts 63°
2026-05-01 14:34 38.83199 1.27409 1479 ft 139 kts 63°
2026-05-01 14:34 38.83653 1.28501 1266 ft 137 kts 63°
2026-05-01 14:34 38.84085 1.29589 1122 ft 138 kts 64°
2026-05-01 14:34 38.84527 1.30683 944 ft 138 kts 63°
2026-05-01 14:35 38.84994 1.31763 731 ft 138 kts 62°
2026-05-01 14:35 38.85455 1.32836 562 ft 137 kts 63°
2026-05-01 14:35 38.85892 1.33917 402 ft 136 kts 63°
2026-05-01 14:35 38.86334 1.34992 216 ft 136 kts 63°
2026-05-01 14:36 38.86772 1.36073 39 ft 136 kts 63°
2026-05-01 14:36 38.87154 1.37009 38 ft 96 kts 62°
2026-05-01 14:36 38.87387 1.37559 40 ft 40 kts 62°
2026-05-01 14:36 38.87493 1.37766 39 ft 22 kts 45°
2026-05-01 14:37 38.87594 1.37869 39 ft 17 kts 32°
2026-05-01 14:37 38.87672 1.37911 39 ft 10 kts 344°
2026-05-01 14:37 38.87686 1.37832 41 ft 9 kts 246°
2026-05-01 14:37 38.87665 1.37776 42 ft 6 kts 243°
2026-05-01 14:38 38.87647 1.37732 43 ft 3 kts 242°
2026-05-01 14:38 38.87634 1.37702 43 ft 4 kts 241°
2026-05-01 14:38 38.87620 1.37669 43 ft 4 kts 241°
2026-05-01 14:38 38.87602 1.37628 44 ft 6 kts 241°
2026-05-01 14:39 38.87580 1.37575 44 ft 7 kts 241°
2026-05-01 14:39 38.87560 1.37519 44 ft 5 kts 270°
2026-05-01 14:39 38.87585 1.37482 45 ft 5 kts 328°
2026-05-01 14:39 38.87618 1.37459 46 ft 5 kts 332°
2026-05-01 14:40 38.87639 1.37444 47 ft 0 kts 332°
2026-05-01 14:40 38.87640 1.37444 47 ft 0 kts 332°